Regional Weather Roundup
Issued by NWS Charleston, SC

Current Version | Previous Version | Text Only | Print | Product List | Glossary Off
Versions: 1 2 3 4 5 6 7 8 9 10 11 12 13 14 15 16 17 18 19 20 21 22 23 24 25 26 27 28 29 30 31 32 33 34 35 36 37 38 39 40 41 42 43 44 45 46 47 48 49 50

629
ASUS42 KCHS 280827
RWRCHS

REGIONAL WEATHER ROUNDUP
NATIONAL WEATHER SERVICE CHARLESTON SC
400 AM EDT SUN MAY 28 2017

NOTE: "FAIR" INDICATES FEW OR NO CLOUDS BELOW 12,000 FEET WITH NO
SIGNIFICANT WEATHER AND/OR OBSTRUCTIONS TO VISIBILITY.

NOT ALL STATIONS ARE QUALITY CONTROLLED. USE DATA WITH CAUTION...
ESPECIALLY DEWPOINT OBSERVATIONS.

SCZ027-030-031-034>040-042>050-280900-
...SOUTHEAST SOUTH CAROLINA...

CITY           SKY/WX    TMP DP  RH WIND       PRES   REMARKS
N CHARLESTON   PTCLDY    72  68  87 SW6       29.90F
WATERFRONT PRK   N/A     75  72  90 VRB2      29.88F
JOHNS ISLAND   FAIR      73  72  94 CALM      29.91S
PINOPOLIS        N/A     73  66  78 SW6       29.82F
MONCKS CORNER  FAIR      66  63  88 CALM      29.90S
SUMMERVILLE    FAIR      66  63  88 S3        29.92R
BEAUFORT MCAS  CLOUDY    71  68  90 SW6       29.91F
BEAUFORT ARPT  FAIR      73  68  83 SW3       29.91S
HILTON HEAD IS CLOUDY    73  70  88 SW3       29.92S
WALTERBORO     MOSUNNY   66  63  88 CALM      29.92S
ALLENDALE      FAIR      70  63  78 CALM      29.90F

...SOUTHERN MIDLANDS AND PEE DEE...

CITY           SKY/WX    TMP DP  RH WIND       PRES   REMARKS
GEORGETOWN     FAIR      68  68 100 SW6       29.90S
KINGSTREE      FAIR      64  63  94 CALM      29.89S
ORANGEBURG     CLOUDY    68  63  84 CALM      29.91S
BARNWELL       FAIR      70  64  83 CALM      29.91F
AIKEN          FAIR      70  64  83 SW6       29.93F
MANNING        FAIR      66  64  94 SW3       29.90S
COLUMBIA       CLOUDY    71  63  75 CALM      29.88F
SUMTER         PTCLDY    73  61  65 W6        29.87S
FLORENCE       MOCLDY    73  64  73 SW7       29.87F
MYRTLE BEACH   PTCLDY    73  67  81 W8        29.90S
N MYRTLE BEACH PTCLDY    73  67  81 W5        29.87F

$$

GAZ063-065-086>088-099>101-113>116-118-119-134>141-150-280900-
...SOUTHEAST GEORGIA...

CITY           SKY/WX    TMP DP  RH WIND       PRES   REMARKS
SAVANNAH ARPT  CLOUDY    70  62  76 CALM      29.92F
HUNTER AAF     PTCLDY    71  69  94 CALM      29.89F
FORT STEWART   PTCLDY    66  62  87 CALM      29.91F
STATESBORO     PTCLDY    69  69 100 SW3       29.92F
SYLVANIA       SUNNY     68  67  98 CALM      29.93S
CLAXTON        FAIR     N/A N/A N/A CALM      29.94S

...CSRA...CENTRAL AND FAR SOUTHEAST GEORGIA...

CITY           SKY/WX    TMP DP  RH WIND       PRES   REMARKS
THOMSON        FOG       71  67  87 CALM      29.95F VSB 1/4
AUGUSTA-BUSH   PTCLDY    69  65  86 CALM      29.90F
AUGUSTA-DANIEL PTCLDY    76  65  68 CALM      29.91F
SWAINSBORO     FAIR      70  64  83 CALM      29.93F
VIDALIA        CLOUDY    70  64  83 CALM      29.94F
EASTMAN        FAIR      68  68  98 CALM      29.96F
HAZLEHURST     FAIR      70  68  93 CALM      29.94S
ALMA           CLOUDY    67  63  87 SW3       29.95F
WAYCROSS       CLOUDY    70  69  99 CALM      29.96F
JESUP          FAIR      64  59  82 CALM      29.94F
BAXLEY         FAIR      68  68 100 CALM      29.94F
BRUNSWICK      CLOUDY    72  68  88 W5        29.95F
SAINT SIMONS   CLOUDY    74  68  81 W6        29.95S

$$

SCZ027-028-034-036>038-045-046-048>050-GAZ119-141-280900-
...LAKE AND SUPPLEMENTAL COASTAL OBSERVATIONS...

STATION/POSITION TIME  TEMP    WIND        PRES    WAVE   SWELL
                       AIR SEA DIR/SP/G            HT/PER HT/PER/DIR
                 (UTC) (F)     (DEG/KT/KT) (MB)    (FT/S) (FT/S/D)
WINYAH BAY       0730   72     250/  4     1012.0S
LAKE MURRAY      0750   75     280/ 10/ 15 1011.2F
ACE BASIN NERRS  0730   73        CALM     1013.0F
FORT PULASKI     0800   74     220/  7/  9 1013.1
SAPELO ISLAND    0800   74     260/  1     1014.0

$$

ANZ835-935-AMZ111-154-330-350-352-354-370-450-454-472-280900-
...C-MAN AND BUOY OBSERVATIONS...

STATION/POSITION TIME  TEMP    WIND        PRES    WAVE   SWELL
                       AIR SEA DIR/SP/G            HT/PER HT/PER/DIR
                 (UTC) (F)     (DEG/KT/KT) (MB)    (FT/S) (FT/S/D)
BUOY 41004       0810   76 75  220/ 12/ 16 1012.4
BUOY 41008       0750   78 78  240/ 12/ 14 1013.6F   2/ 4   2/ 90/ 8
FOLLY BEACH CMAN 0800   76     240/  6/  9 1013.3F
CAPERS NEARSHORE 0808   80 77  240/ 12/ 17 1012.4F
FRIPP NEARSHORE  0808   78 78  230/ 10/ 12 1012.8F


STATION/POSITION TIME  TEMP    WIND        PRES    WAVE   SWELL
                       AIR SEA DIR/SP/G            HT/PER HT/PER/DIR
                 (UTC) (F)     (DEG/KT/KT) (MB)    (FT/S) (FT/S/D)
5E ST. MARYS GA  0800      78                N/A     2/ 8
FRYING PAN BUOY  0810   76 75  230/ 16/ 19 1011.9
BUOY 41025       0750   76 76  220/  8/  8 1010.7F   4/ 6   3/220/ 6
CAPE LOOKOUT NC  0800   74     240/  8/ 12 1010.3F
BUOY 41002       0750   76 77  230/ 14/ 16 1014.2F   3/ 7   2/150/ 7
BUOY 41010       0810   79 79  190/ 10/ 12 1015.0
ST AUGUSTINE FL  0800   70 77  270/  7/  9 1015.3F


$$




USA.gov is the U.S. government's official web portal to all federal, state and local government web resources and services.